Location: Krakow
(50.0830°N, 19.9170°E)
Time: 19:32:22
(UTC+01:00)

Altair - Pass Details

Date: 09 December 2023
Orbit: 1501 x 1682 km, 47.2° (Epoch: 02 March)

Event Time Altitude Azimuth Distance (km) Brightness Sun altitude
Rises 04:26:34 0° 175° (S) 4,872 10.2 -27.7°
Reaches altitude 10° 04:31:55 10° 152° (SSE) 3,856 10.0 -26.8°
Maximum altitude 04:36:13 14° 125° (SE) 3,531 10.1 -26.1°
Drops below altitude 10° 04:40:26 10° 98° (E) 3,800 10.6 -25.5°
Sets 04:45:35 0° 76° (ENE) 4,749 11.2 -24.6°
